This demonstration page uses our WeatherBlox Daily Observations layout. Learn more.

Left ArrowRight Arrow

41.55636, -103.73856

Hourly Observations for December 31, 2018

Temp ( °F °C ) Dew Point ( °F °C ) Humidity (%) Winds ( mph kmh ) Pressure ( in mb ) Visibility ( mi km ) Precip ( " mm )
6:56 pm 18:56 Clear 33 0.7 19 -7.2 56 56 NW 16 26 29.66 1004 10 16 N/A
7:56 pm 19:56 Mostly Cloudy 31 -0.3 19 -7.4 59 59 WNW 13 20 29.65 1004 10 16 N/A
8:58 pm 20:58 Mostly Cloudy 32 0.1 19 -7.3 58 58 NNW 12 19 29.63 1004 10 16 N/A
9:58 pm 21:58 Cloudy 31 -0.3 19 -7 61 61 NNW 13 20 29.62 1003 10 16 N/A
10:58 pm 22:58 Mostly Clear 29 -1.8 19 -7.3 66 66 NNW 14 22 29.63 1003 10 16 N/A
11:58 pm 23:58 Clear 28 -2.3 18 -7.7 67 67 NW 20 31 29.65 1004 10 16 N/A
12:58 am 00:58 Clear 27 -2.6 18 -7.8 68 68 NNW 16 26 29.69 1005 10 16 N/A
1:58 am 01:58 Mostly Cloudy 28 -2.3 18 -7.6 67 67 NW 20 31 29.72 1006 10 16 N/A
2:58 am 02:58 Windy with Snow Likely 21 -6.2 18 -7.6 90 90 NNW 24 39 29.79 1009 2 4 N/A
3:58 am 03:58 Windy with Snow Showers Likely 17 -8.5 13 -10.5 86 86 NNW 28 44 29.85 1011 1 2 N/A
4:58 am 04:58 Windy with Snow Likely 14 -10 11 -11.8 87 87 N 29 46 29.90 1013 1 2 N/A
5:58 am 05:58 Windy with Snow Likely 11 -11.8 7 -14 84 84 N 32 52 30.17 1022 1 2 N/A
6:58 am 06:58 Mostly Cloudy with Snow 9 -13 5 -14.9 86 86 N 29 46 30.25 1024 1 1 N/A
7:58 am 07:58 Windy with Snow Likely 8 -13.5 4 -15.3 86 86 N 31 50 30.06 1018 5 8 N/A
8:58 am 08:58 Mostly Cloudy with Light Snow 8 -13.2 5 -15.1 86 86 N 22 35 30.13 1020 3 5 N/A
9:56 am 09:56 Cloudy with Snow 8 -13.5 4 -15.6 84 84 N 25 41 30.19 1022 5 8 N/A
10:57 am 10:57 Mostly Cloudy with Light Snow 8 -13.5 4 -15.4 86 86 N 21 33 30.20 1023 7 11 N/A
11:56 am 11:56 Mostly Cloudy with Light Snow 8 -13.6 4 -15.8 84 84 N 26 43 30.21 1023 1 1 N/A
12:58 pm 12:58 Windy with Snow Likely 7 -13.7 3 -16.1 82 82 N 24 39 30.23 1024 2 2 N/A
1:58 pm 13:58 Windy with Snow Likely 8 -13.6 4 -15.6 85 85 N 22 35 30.23 1024 1 2 N/A
2:58 pm 14:58 Mostly Cloudy with Light Snow 7 -13.9 3 -15.9 85 85 NNE 16 26 30.33 1027 5 8 N/A
3:58 pm 15:58 Cloudy with Snow 6 -14.5 2 -16.4 86 86 N 15 24 30.37 1029 1 1 N/A

Powered by AerisWeather